Weather History for Estherville, IA

Change the Weather History Date:

Monday, April 1, 2013

  Actual Average Record
Temperature  
Mean Temperature 27 °F 40 °F  
Max Temperature 35 °F 51 °F 85 °F (1986)
Min Temperature 18 °F 30 °F 12 °F (1975)
Degree Days  
Heating Degree Days 38 25  
Month to date heating degree days 38 25  
Since 1 July heating degree days 6876 6940  
Cooling Degree Days 0 0  
Month to date cooling degree days 0 0  
Year to date cooling degree days 0 0  
Moisture  
Dew Point 14 °F    
Average Humidity 61    
Maximum Humidity 81    
Minimum Humidity 40    
Precipitation  
Precipitation 0.00 in 0.08 in 0.65 in (1960)
Month to date precipitation 0.00 0.08  
Sea Level Pressure  
Sea Level Pressure 30.28 in    
Wind  
Wind Speed 13 mph (NNW)    
Max Wind Speed 23 mph    
Max Gust Speed 29 mph    
Visibility 10 miles    
Events      
T = Trace of Precipitation, MM = Missing Value Source: NWS Daily Summary

Daily Weather History Graph

Daily Weather History Graph

Search for Another Location

Airport:

Trip Planner

Search our weather history database for the weather conditions in past years. The results will help you decide how hot, cold, wet, or windy it might be!

Date:

Astronomy

Apr. 01, 2013 Rise Set
Actual Time 7:00 AM CDT 7:45 PM CDT
Civil Twilight 6:31 AM CDT 8:14 PM CDT
Nautical Twilight 5:57 AM CDT 8:49 PM CDT
Astronomical Twilight 5:21 AM CDT 9:24 PM CDT
Moon 1:02 AM CDT (4/1) 10:40 AM CDT (4/1)
Length of Visible Light 13h 43m
Length of Day
12h 45m
Waning Gibbous, 67% of the Moon is Illuminated
Apr 1
Waning Gibbous
Apr 2
Last Quarter
Apr 10
New
Apr 18
First Quarter
Apr 25
Full

Hourly Weather History & Observations

Time (CDT) Temp. Windchill Dew Point Humidity Pressure Visibility Wind Dir Wind Speed Gust Speed Precip Events Conditions
12:52 AM 21.9 °F 7.3 °F 14.0 °F 72% 30.19 in 10.0 mi NNW 18.4 mph 28.8 mph N/A   Clear
1:52 AM 21.9 °F 6.5 °F 14.0 °F 72% 30.21 in 10.0 mi NNW 20.7 mph 27.6 mph N/A   Clear
2:26 AM 21.2 °F 7.3 °F 14.0 °F 74% 30.16 in 10.0 mi NNW 16.1 mph - N/A   Mostly Cloudy
2:52 AM 21.0 °F 6.2 °F 12.9 °F 71% 30.22 in 10.0 mi North 18.4 mph 24.2 mph N/A   Mostly Cloudy
3:01 AM 21.2 °F 6.4 °F 12.2 °F 68% 30.17 in 10.0 mi NNW 18.4 mph 25.3 mph N/A   Scattered Clouds
3:52 AM 21.0 °F 5.7 °F 12.0 °F 68% 30.22 in 10.0 mi NNW 19.6 mph 25.3 mph N/A   Partly Cloudy
4:07 AM 21.2 °F 7.3 °F 12.2 °F 68% 30.18 in 10.0 mi NNW 16.1 mph - N/A   Mostly Cloudy
4:52 AM 21.0 °F 6.2 °F 12.9 °F 71% 30.24 in 10.0 mi North 18.4 mph - N/A   Overcast
5:52 AM 19.9 °F 4.8 °F 12.0 °F 71% 30.26 in 10.0 mi NNW 18.4 mph - N/A   Scattered Clouds
6:52 AM 19.0 °F 3.6 °F 10.0 °F 68% 30.29 in 10.0 mi NNW 18.4 mph - N/A   Clear
7:52 AM 19.0 °F 4.0 °F 10.9 °F 71% 30.31 in 10.0 mi NNW 17.3 mph - N/A   Clear
8:52 AM 21.9 °F 6.9 °F 10.9 °F 63% 30.32 in 10.0 mi NNW 19.6 mph - N/A   Clear
9:52 AM 24.1 °F 10.6 °F 10.0 °F 55% 30.32 in 10.0 mi North 17.3 mph 25.3 mph N/A   Clear
10:52 AM 27.0 °F 13.9 °F 10.9 °F 51% 30.33 in 10.0 mi NNW 18.4 mph 25.3 mph N/A   Clear
11:52 AM 28.0 °F 17.5 °F 14.0 °F 56% 30.35 in 10.0 mi NNW 12.7 mph - N/A   Clear
12:52 PM 30.0 °F 18.7 °F 14.0 °F 51% 30.34 in 10.0 mi North 16.1 mph - N/A   Partly Cloudy
1:52 PM 32.0 °F 21.2 °F 16.0 °F 52% 30.33 in 10.0 mi NW 16.1 mph 23.0 mph N/A   Scattered Clouds
2:52 PM 34.0 °F 25.5 °F 16.0 °F 48% 30.32 in 10.0 mi NNW 11.5 mph - N/A   Clear
3:52 PM 34.0 °F 25.5 °F 15.1 °F 46% 30.31 in 10.0 mi NNW 11.5 mph 19.6 mph N/A   Clear
4:52 PM 35.1 °F 26.4 °F 14.0 °F 42% 30.30 in 10.0 mi North 12.7 mph - N/A   Clear
5:52 PM 34.0 °F 25.5 °F 12.9 °F 42% 30.30 in 10.0 mi NNW 11.5 mph - N/A   Clear
6:52 PM 33.1 °F 25.5 °F 14.0 °F 46% 30.30 in 10.0 mi North 9.2 mph - N/A   Clear
7:52 PM 28.9 °F 21.9 °F 16.0 °F 58% 30.30 in 10.0 mi North 6.9 mph - N/A   Clear
8:52 PM 26.1 °F 19.4 °F 18.0 °F 71% 30.31 in 10.0 mi North 5.8 mph - N/A   Clear
9:52 PM 25.0 °F 17.1 °F 19.0 °F 78% 30.32 in 10.0 mi North 6.9 mph - N/A   Clear
10:52 PM 26.1 °F 20.5 °F 19.0 °F 75% 30.33 in 10.0 mi North 4.6 mph - N/A   Clear
11:52 PM 25.0 °F 19.3 °F 19.9 °F 81% 30.32 in 10.0 mi NNW 4.6 mph - N/A   Clear